Location: Bacea
(45.9500°N, 22.6667°E)
Time: 15:52:59
(UTC+00:00)

Cosmos 489 Rocket - Pass Details

Date: 31 May 2022
Orbit: 952 x 983 km, 74.0° (Epoch: 29 June)

Event Time Altitude Azimuth Distance (km) Brightness Sun altitude
Rises 22:44:26 0° 347° (NNW) 3,645 8.8 -21.9°
Reaches altitude 10° 22:49:37 10° 24° (NNE) 2,701 7.8 -21.8°
Maximum altitude 22:51:04 11° 38° (NE) 2,645 7.6 -21.8°
Drops below altitude 10° 22:52:31 10° 51° (NE) 2,703 7.4 -21.8°
Sets 22:57:42 0° 88° (E) 3,654 7.6 -21.7°
